When you browse on this site, cookies collect data to enhance your experience and personalize the content and advertising you see.
Visit our Privacy Policy to learn more. By continuing to use the site, you agree to this use of cookies and data.
  • Em Portugal
  • Lista de países
  • Para 7 dias
  • Temperatura da água
  • Mapas de satélite
  • Mapa do tempo
  • Widgets de tempo
  • user-avatar
    Iniciar Sessão

    Previsão horária em Maloe Ermakovo

    Hoje, 19 Julho, Sexta-feira

    Tempo Temperatura Precipitação Vento Pressão Humidade
    00:00 +19°C° 0 mm 3 m/s 745 mmHg 95%
    01:00 +19°C° 0 mm 3 m/s 746 mmHg 96%
    02:00 +18°C° 0 mm 3 m/s 746 mmHg 96%
    03:00 +18°C° 0 mm 2 m/s 746 mmHg 96%
    04:00 +18°C° 0 mm 3 m/s 746 mmHg 94%
    05:00 +19°C° 0 mm 3 m/s 747 mmHg 92%
    06:00 +20°C° 0 mm 3 m/s 747 mmHg 89%
    07:00 +21°C° 0 mm 3 m/s 747 mmHg 85%
    08:00 +22°C° 0 mm 4 m/s 747 mmHg 81%
    09:00 +25°C° 0 mm 4 m/s 748 mmHg 75%
    10:00 +25°C° 0 mm 4 m/s 748 mmHg 72%
    11:00 +26°C° 0 mm 4 m/s 747 mmHg 69%
    12:00 +26°C° 0 mm 4 m/s 747 mmHg 66%
    13:00 +27°C° 0 mm 4 m/s 748 mmHg 64%
    14:00 +27°C° 0 mm 3 m/s 748 mmHg 62%
    15:00 +27°C° 0 mm 3 m/s 748 mmHg 61%
    16:00 +27°C° 0.1 mm 3 m/s 748 mmHg 66%
    17:00 +26°C° 0.1 mm 3 m/s 748 mmHg 70%
    18:00 +25°C° 0.1 mm 2 m/s 748 mmHg 75%
    19:00 +24°C° 0 mm 2 m/s 748 mmHg 78%
    20:00 +21°C° 0 mm 2 m/s 748 mmHg 80%
    21:00 +21°C° 0 mm 1 m/s 749 mmHg 83%
    22:00 +20°C° 0 mm 1 m/s 749 mmHg 84%
    23:00 +19°C° 0 mm 1 m/s 749 mmHg 86%

    Amanhã, 20 Julho, Sábado

    Tempo Temperatura Precipitação Vento Pressão Humidade
    00:00 +18°C° 0 mm 2 m/s 749 mmHg 87%
    01:00 +18°C° 0 mm 1 m/s 749 mmHg 88%
    02:00 +18°C° 0 mm 1 m/s 749 mmHg 90%
    03:00 +16°C° 0 mm 1 m/s 749 mmHg 91%
    04:00 +18°C° 0 mm 1 m/s 750 mmHg 89%
    05:00 +18°C° 0 mm 2 m/s 750 mmHg 87%
    06:00 +19°C° 0 mm 2 m/s 750 mmHg 85%
    07:00 +20°C° 0 mm 2 m/s 750 mmHg 79%
    08:00 +22°C° 0 mm 3 m/s 750 mmHg 72%
    09:00 +24°C° 0 mm 3 m/s 750 mmHg 65%
    10:00 +25°C° 0 mm 3 m/s 750 mmHg 64%
    11:00 +26°C° 0 mm 4 m/s 750 mmHg 62%
    12:00 +26°C° 0 mm 4 m/s 750 mmHg 60%
    13:00 +26°C° 0.2 mm 4 m/s 750 mmHg 61%
    14:00 +26°C° 0.2 mm 4 m/s 750 mmHg 61%
    15:00 +26°C° 0.2 mm 4 m/s 750 mmHg 62%
    16:00 +25°C° 0.2 mm 3 m/s 750 mmHg 66%
    17:00 +25°C° 0.2 mm 3 m/s 750 mmHg 70%
    18:00 +24°C° 0.2 mm 2 m/s 751 mmHg 74%
    19:00 +21°C° 0 mm 2 m/s 751 mmHg 77%
    20:00 +20°C° 0 mm 2 m/s 751 mmHg 79%
    21:00 +18°C° 0 mm 2 m/s 751 mmHg 81%
    22:00 +17°C° 0 mm 2 m/s 751 mmHg 84%
    23:00 +17°C° 0 mm 3 m/s 751 mmHg 87%

    Depois de amanhã, 21 Julho, Domingo

    Tempo Temperatura Precipitação Vento Pressão Humidade
    00:00 +16°C° 0 mm 3 m/s 751 mmHg 90%
    01:00 +16°C° 0 mm 3 m/s 751 mmHg 91%
    02:00 +16°C° 0 mm 3 m/s 751 mmHg 92%
    03:00 +14°C° 0 mm 3 m/s 751 mmHg 93%
    04:00 +16°C° 0 mm 3 m/s 751 mmHg 90%
    05:00 +17°C° 0 mm 3 m/s 751 mmHg 87%
    06:00 +18°C° 0 mm 4 m/s 751 mmHg 84%
    07:00 +19°C° 0 mm 4 m/s 751 mmHg 80%
    08:00 +21°C° 0 mm 4 m/s 751 mmHg 75%
    09:00 +22°C° 0 mm 5 m/s 751 mmHg 70%
    10:00 +22°C° 0.2 mm 5 m/s 751 mmHg 69%
    11:00 +23°C° 0.2 mm 5 m/s 751 mmHg 67%
    12:00 +25°C° 0.2 mm 5 m/s 751 mmHg 65%
    13:00 +25°C° 0.1 mm 5 m/s 750 mmHg 64%
    14:00 +25°C° 0.1 mm 5 m/s 750 mmHg 62%
    15:00 +26°C° 0.1 mm 5 m/s 750 mmHg 61%
    16:00 +25°C° 0.2 mm 4 m/s 750 mmHg 67%
    17:00 +23°C° 0.2 mm 4 m/s 750 mmHg 73%
    18:00 +22°C° 0.2 mm 3 m/s 750 mmHg 78%
    19:00 +21°C° 0.1 mm 3 m/s 750 mmHg 83%
    20:00 +19°C° 0.1 mm 3 m/s 750 mmHg 87%
    21:00 +18°C° 0.1 mm 3 m/s 750 mmHg 92%
    22:00 +17°C° 0 mm 3 m/s 750 mmHg 93%
    23:00 +17°C° 0 mm 3 m/s 750 mmHg 94%

    22 Julho, Segunda-feira

    Tempo Temperatura Precipitação Vento Pressão Humidade
    00:00 +16°C° 0 mm 3 m/s 750 mmHg 95%
    01:00 +16°C° 0 mm 3 m/s 750 mmHg 96%
    02:00 +16°C° 0 mm 3 m/s 749 mmHg 96%
    03:00 +16°C° 0 mm 3 m/s 749 mmHg 96%
    04:00 +16°C° 0 mm 3 m/s 749 mmHg 94%
    05:00 +17°C° 0 mm 3 m/s 749 mmHg 93%
    06:00 +18°C° 0 mm 3 m/s 750 mmHg 91%
    07:00 +19°C° 0 mm 4 m/s 749 mmHg 86%
    08:00 +20°C° 0 mm 4 m/s 749 mmHg 80%
    09:00 +21°C° 0 mm 4 m/s 749 mmHg 75%
    10:00 +22°C° 0.6 mm 4 m/s 749 mmHg 75%
    11:00 +22°C° 0.6 mm 5 m/s 749 mmHg 74%
    12:00 +23°C° 0.6 mm 5 m/s 749 mmHg 74%
    13:00 +23°C° 0.2 mm 5 m/s 749 mmHg 71%
    14:00 +23°C° 0.2 mm 5 m/s 749 mmHg 69%
    15:00 +23°C° 0.2 mm 5 m/s 749 mmHg 67%
    16:00 +23°C° 0 mm 4 m/s 749 mmHg 70%
    17:00 +22°C° 0 mm 3 m/s 749 mmHg 73%
    18:00 +21°C° 0 mm 2 m/s 749 mmHg 76%
    19:00 +20°C° 0 mm 2 m/s 749 mmHg 81%
    20:00 +19°C° 0 mm 1 m/s 749 mmHg 85%
    21:00 +18°C° 0 mm 1 m/s 749 mmHg 89%
    22:00 +16°C° 0 mm 1 m/s 749 mmHg 90%
    23:00 +16°C° 0 mm 1 m/s 749 mmHg 91%

    23 Julho, Terça-feira

    Tempo Temperatura Precipitação Vento Pressão Humidade
    00:00 +16°C° 0 mm 1 m/s 749 mmHg 92%
    01:00 +16°C° 0 mm 2 m/s 749 mmHg 93%
    02:00 +15°C° 0 mm 2 m/s 749 mmHg 94%
    03:00 +15°C° 0 mm 2 m/s 748 mmHg 95%
    04:00 +16°C° 0 mm 2 m/s 749 mmHg 93%
    05:00 +16°C° 0 mm 2 m/s 749 mmHg 92%
    06:00 +17°C° 0 mm 3 m/s 749 mmHg 90%
    07:00 +19°C° 0 mm 3 m/s 749 mmHg 83%
    08:00 +20°C° 0 mm 3 m/s 749 mmHg 77%
    09:00 +22°C° 0 mm 3 m/s 749 mmHg 70%
    10:00 +22°C° 0 mm 3 m/s 749 mmHg 66%
    11:00 +24°C° 0 mm 3 m/s 749 mmHg 62%
    12:00 +25°C° 0 mm 3 m/s 749 mmHg 58%
    13:00 +25°C° 0.1 mm 3 m/s 749 mmHg 59%
    14:00 +25°C° 0.1 mm 3 m/s 749 mmHg 59%
    15:00 +25°C° 0.1 mm 4 m/s 749 mmHg 60%
    16:00 +24°C° 0 mm 3 m/s 749 mmHg 64%
    17:00 +24°C° 0 mm 2 m/s 749 mmHg 68%
    18:00 +24°C° 0 mm 2 m/s 749 mmHg 72%
    19:00 +22°C° 0 mm 1 m/s 749 mmHg 78%
    20:00 +20°C° 0 mm 1 m/s 749 mmHg 83%
    21:00 +18°C° 0 mm 1 m/s 749 mmHg 89%
    22:00 +18°C° 0 mm 1 m/s 749 mmHg 89%
    23:00 +18°C° 0 mm 1 m/s 749 mmHg 90%

    24 Julho, Quarta-feira

    Tempo Temperatura Precipitação Vento Pressão Humidade
    00:00 +16°C° 0 mm 1 m/s 749 mmHg 91%
    01:00 +16°C° 0 mm 1 m/s 749 mmHg 91%
    02:00 +16°C° 0 mm 1 m/s 749 mmHg 91%
    03:00 +16°C° 0 mm 1 m/s 749 mmHg 91%
    04:00 +18°C° 0 mm 1 m/s 749 mmHg 89%
    05:00 +18°C° 0 mm 1 m/s 749 mmHg 87%
    06:00 +18°C° 0 mm 2 m/s 749 mmHg 85%
    07:00 +19°C° 0 mm 2 m/s 749 mmHg 81%
    08:00 +21°C° 0 mm 3 m/s 749 mmHg 77%
    09:00 +22°C° 0 mm 3 m/s 749 mmHg 73%
    10:00 +24°C° 0 mm 3 m/s 749 mmHg 72%
    11:00 +24°C° 0 mm 3 m/s 749 mmHg 71%
    12:00 +25°C° 0 mm 3 m/s 749 mmHg 69%
    13:00 +26°C° 0 mm 3 m/s 749 mmHg 66%
    14:00 +27°C° 0 mm 3 m/s 749 mmHg 62%
    15:00 +29°C° 0 mm 3 m/s 749 mmHg 59%
    16:00 +28°C° 0 mm 4 m/s 748 mmHg 64%
    17:00 +27°C° 0 mm 4 m/s 748 mmHg 69%
    18:00 +26°C° 0 mm 4 m/s 748 mmHg 74%
    19:00 +25°C° 0 mm 4 m/s 748 mmHg 73%
    20:00 +23°C° 0 mm 5 m/s 748 mmHg 72%
    21:00 +23°C° 0 mm 5 m/s 748 mmHg 72%
    22:00 +22°C° 0 mm 5 m/s 748 mmHg 71%
    23:00 +22°C° 0 mm 5 m/s 748 mmHg 70%
    Mostrar mais